Date String (YYYY-MM-DD hh:mm:ss) UTC,Instrument flags,Ambient pressure (hPa),Sample flow (lpm),Bypass flow (lpm),Sample temperature (°C),Ambient temperature (°C),ASC tube jacket temperature (°C),LED temperature (°C),Box temperature (°C),Sample RH (%),Span deviation,Mass concentration (μg/m³),Mass concentration (μg/m³),Mass concentration (μg/m³)
DateTimeUTC,F1_M11,P_M11,Q1_M11,Q2_M11,T1_M11,T2_M11,T3_M11,T4_M11,T5_M11,U1_M11,ZSPAN_M11,X0_M11,X2_M11,X1_M11
2022-08-04 00:00:00,,0828.0,5.00,0.00,29.4,27.8,00.0,38.2,31.3,27.5,0000.0,0009.85,0005.68,0005.10
2022-08-04 00:01:00,,0828.0,5.00,0.00,29.4,28.0,00.0,38.2,31.4,27.9,0000.0,0010.00,0005.68,0005.11
2022-08-04 00:02:00,,0828.0,5.01,0.00,29.5,28.2,00.0,38.2,31.5,28.2,0000.0,0010.39,0005.68,0005.09
2022-08-04 00:03:00,,0828.0,4.99,0.00,29.5,28.4,00.0,38.2,31.5,28.1,0000.0,0010.69,0005.71,0005.09
2022-08-04 00:04:00,,0828.0,5.01,0.00,29.6,28.5,00.0,38.3,31.6,27.9,0000.0,0010.97,0005.70,0005.08
2022-08-04 00:05:00,,0828.0,4.99,0.00,29.6,28.2,00.0,38.2,31.5,27.6,0000.0,0011.45,0005.73,0005.09
2022-08-04 00:06:00,,0828.0,5.00,0.00,29.6,27.6,00.0,38.2,31.4,27.7,0000.0,0010.89,0005.76,0005.10
2022-08-04 00:07:00,,0828.0,5.01,0.00,29.5,27.3,00.0,38.2,31.3,27.7,0000.0,0010.69,0005.76,0005.10
2022-08-04 00:08:00,,0828.0,5.00,0.00,29.5,27.3,00.0,38.2,31.2,27.8,0000.0,0010.67,0005.73,0005.09
2022-08-04 00:09:00,,0828.0,5.00,0.00,29.4,27.4,00.0,38.2,31.2,27.8,0000.0,0010.69,0005.72,0005.09
2022-08-04 00:10:00,,0828.0,4.99,0.00,29.4,27.6,00.0,38.2,31.3,28.0,0000.0,0010.75,0005.76,0005.09
2022-08-04 00:11:00,,0828.0,5.00,0.00,29.4,27.8,00.0,38.2,31.3,28.7,0000.0,0010.70,0005.75,0005.08
2022-08-04 00:12:00,,0828.0,5.02,0.00,29.5,28.0,00.0,38.2,31.4,28.7,0000.0,0010.57,0005.76,0005.07
2022-08-04 00:13:00,,0828.0,4.99,0.00,29.5,28.2,00.0,38.2,31.5,28.0,0000.0,0010.43,0005.79,0005.08
2022-08-04 00:14:00,,0828.1,5.00,0.00,29.5,28.4,00.0,38.2,31.6,27.7,0000.0,0010.04,0005.74,0005.08
2022-08-04 00:15:00,,0828.0,5.00,0.00,29.6,28.4,00.0,38.3,31.6,27.9,0000.0,0009.92,0005.74,0005.08
2022-08-04 00:16:00,,0828.1,5.00,0.00,29.6,28.0,00.0,38.3,31.5,28.5,0000.0,0009.51,0005.74,0005.09
2022-08-04 00:17:00,,0828.1,5.01,0.00,29.5,27.3,00.0,38.2,31.3,29.1,0000.0,0009.45,0005.72,0005.10
2022-08-04 00:18:00,,0828.1,5.00,0.00,29.5,27.2,00.0,38.2,31.3,30.1,0000.0,0009.65,0005.73,0005.12
2022-08-04 00:19:00,,0828.1,4.99,0.00,29.4,27.3,00.0,38.2,31.2,30.0,0000.0,0009.64,0005.77,0005.16
2022-08-04 00:20:00,,0828.1,5.00,0.00,29.4,27.4,00.0,38.2,31.2,29.9,0000.0,0009.70,0005.85,0005.23
2022-08-04 00:21:00,,0828.1,5.01,0.00,29.4,27.6,00.0,38.2,31.3,30.0,0000.0,0009.77,0005.94,0005.32
2022-08-04 00:22:00,,0828.1,5.00,0.00,29.4,27.8,00.0,38.2,31.3,30.2,0000.0,0009.92,0006.06,0005.41
2022-08-04 00:23:00,,0828.1,4.99,0.00,29.5,28.0,00.0,38.2,31.4,29.9,0000.0,0009.86,0006.12,0005.49
2022-08-04 00:24:00,,0828.1,5.00,0.00,29.5,28.2,00.0,38.2,31.5,30.0,0000.0,0010.00,0006.18,0005.60
2022-08-04 00:25:00,,0828.1,4.99,0.00,29.5,28.4,00.0,38.2,31.6,30.1,0000.0,0010.54,0006.33,0005.71
2022-08-04 00:26:00,,0828.1,4.99,0.00,29.6,28.5,00.0,38.3,31.6,30.1,0000.3,0010.65,0006.49,0005.82
2022-08-04 00:27:00,,0828.2,5.01,0.00,29.6,28.2,00.0,38.3,31.5,30.0,0001.0,0010.69,0006.65,0005.96
2022-08-04 00:28:00,,0828.1,4.99,0.00,29.6,27.5,00.0,38.2,31.4,30.1,0001.4,0010.82,0006.77,0006.07
2022-08-04 00:29:00,,0828.2,5.00,0.00,29.5,27.2,00.0,38.2,31.3,30.4,0001.5,0010.69,0006.90,0006.18
2022-08-04 00:30:00,,0828.2,4.99,0.00,29.4,27.3,00.0,38.2,31.2,30.3,0001.7,0010.90,0007.02,0006.29
2022-08-04 00:31:00,,0828.2,5.01,0.00,29.4,27.4,00.0,38.2,31.2,30.0,0001.7,0011.55,0007.08,0006.34
2022-08-04 00:32:00,,0828.2,4.99,0.00,29.4,27.6,00.0,38.2,31.2,30.0,0001.9,0011.63,0007.14,0006.39
2022-08-04 00:33:00,,0828.1,5.00,0.00,29.4,27.8,00.0,38.2,31.3,30.1,0001.9,0011.69,0007.19,0006.43
2022-08-04 00:34:00,,0828.2,5.00,0.00,29.5,28.0,00.0,38.2,31.4,30.2,0002.3,0012.21,0007.28,0006.47
2022-08-04 00:35:00,,0828.2,5.00,0.00,29.5,28.2,00.0,38.2,31.5,29.9,0002.2,0012.49,0007.29,0006.48
2022-08-04 00:36:00,,0828.2,5.00,0.00,29.5,28.3,00.0,38.2,31.6,29.8,0000.8,0012.34,0007.27,0006.49
2022-08-04 00:37:00,,0828.2,5.00,0.00,29.6,28.5,00.0,38.3,31.6,29.5,0002.0,0012.52,0007.23,0006.47
2022-08-04 00:38:00,,0828.3,5.00,0.00,29.6,28.2,00.0,38.3,31.5,29.1,0002.0,0012.57,0007.22,0006.44
2022-08-04 00:39:00,,0828.2,4.99,0.00,29.6,27.6,00.0,38.2,31.3,29.0,0000.1,0012.59,0007.22,0006.42
2022-08-04 00:40:00,,0828.3,5.00,0.00,29.5,27.2,00.0,38.2,31.3,28.8,0000.0,0012.54,0007.23,0006.42
2022-08-04 00:41:00,,0828.3,5.01,0.00,29.4,27.2,00.0,38.2,31.2,29.0,0000.0,0012.61,0007.24,0006.38
2022-08-04 00:42:00,,0828.2,4.99,0.00,29.4,27.3,00.0,38.2,31.2,29.7,0000.0,0012.05,0007.23,0006.37
2022-08-04 00:43:00,,0828.3,5.00,0.00,29.4,27.5,00.0,38.2,31.2,30.3,0000.0,0012.00,0007.20,0006.36
2022-08-04 00:44:00,,0828.3,5.01,0.00,29.4,27.7,00.0,38.2,31.3,30.8,0000.0,0011.97,0007.17,0006.33
2022-08-04 00:45:00,,0828.3,5.00,0.00,29.4,27.9,00.0,38.2,31.4,30.5,0000.0,0011.76,0007.15,0006.30
2022-08-04 00:46:00,,0828.3,4.99,0.00,29.5,28.1,00.0,38.2,31.4,30.5,0000.0,0011.39,0007.13,0006.25
2022-08-04 00:47:00,,0828.3,5.00,0.00,29.5,28.3,00.0,38.2,31.5,30.6,0000.0,0011.07,0007.07,0006.20
2022-08-04 00:48:00,,0828.3,5.00,0.00,29.5,28.4,00.0,38.2,31.6,30.8,0000.0,0010.73,0007.00,0006.15
2022-08-04 00:49:00,,0828.3,5.00,0.00,29.6,28.3,00.0,38.3,31.6,30.8,0000.3,0010.54,0006.90,0006.09
2022-08-04 00:50:00,,0828.3,4.99,0.00,29.5,27.7,00.0,38.2,31.4,31.1,0001.1,0011.03,0006.85,0006.03
2022-08-04 00:51:00,,0828.3,5.01,0.00,29.5,27.2,00.0,38.2,31.3,31.3,0000.3,0011.38,0006.82,0005.97
2022-08-04 00:52:00,,0828.3,5.00,0.00,29.4,27.1,00.0,38.2,31.2,31.6,0001.4,0011.31,0006.78,0005.95
2022-08-04 00:53:00,,0828.3,5.00,0.00,29.4,27.2,00.0,38.2,31.2,31.9,0002.1,0011.13,0006.71,0005.91
2022-08-04 00:54:00,,0828.3,5.01,0.00,29.4,27.4,00.0,38.2,31.2,31.7,0000.8,0011.18,0006.68,0005.87
2022-08-04 00:55:00,,0828.4,4.99,0.00,29.4,27.6,00.0,38.2,31.2,31.6,0000.1,0011.28,0006.65,0005.84
2022-08-04 00:56:00,,0828.4,5.00,0.00,29.4,27.8,00.0,38.2,31.3,31.6,0000.2,0011.46,0006.61,0005.82
2022-08-04 00:57:00,,0828.4,5.00,0.00,29.4,28.0,00.0,38.2,31.4,31.4,0000.1,0011.59,0006.59,0005.82
2022-08-04 00:58:00,,0828.5,4.99,0.00,29.5,28.2,00.0,38.2,31.5,31.1,-000.0,0011.67,0006.59,0005.81
2022-08-04 00:59:00,,0828.5,4.99,0.00,29.5,28.4,00.0,38.2,31.5,31.2,0000.0,0011.63,0006.59,0005.80
